Theta_e
318 318 318 317 316 315 315 314 314 314 314 314 314 314 314 313 313 313 312 311 310 310 309 308 307 306 306 306 306 306 305 304 304 303 303 303 303 302 302 301 300 299 299 299 299 299 299 299 299 300 300 299 299 299 299 299 299 298 298 298 298 298 297 297 297 298 298 299 300 300 298 297 296 296 296 294 294 295 295 294 295 295 294 294 294
318 318 317 317 316 315 314 313 313 313 314 314 314 314 314 313 313 313 312 311 311 310 310 309 308 308 308 308 308 307 306 306 305 305 304 303 303 302 302 300 300 299 299 299 299 299 299 299 299 299 299 299 299 299 298 298 298 298 298 298 298 297 297 297 296 296 296 297 298 300 299 297 296 296 296 294 294 294 294 294 294 294 294 294 294
317 317 317 316 315 314 313 313 313 313 314 314 315 314 314 313 313 312 312 311 311 310 310 310 309 308 308 308 308 307 306 306 306 305 304 303 303 302 302 300 299 299 299 299 299 299 299 299 299 299 299 299 299 298 298 298 298 298 298 298 297 297 297 296 295 295 295 294 294 295 296 296 295 295 295 294 294 294 294 294 294 294 294 295 295
316 317 317 316 315 313 313 313 313 313 313 314 314 314 314 314 313 312 312 311 311 310 310 309 308 307 307 306 306 306 306 305 304 304 303 303 302 302 302 300 299 299 298 298 298 298 298 298 299 299 299 298 298 298 298 298 298 298 297 297 297 297 297 296 295 294 293 293 293 292 293 293 293 293 294 295 295 294 294 294 294 295 295 295 295
316 317 317 316 315 314 313 313 313 312 313 314 314 314 314 314 313 312 312 311 311 310 309 308 307 306 305 305 304 304 304 303 304 304 304 303 303 303 302 301 299 298 298 298 298 298 298 298 298 298 298 298 298 298 298 298 297 297 297 297 297 296 296 296 294 293 292 292 291 291 291 291 291 291 292 294 295 295 295 295 294 295 295 296 296
316 317 317 316 315 315 313 313 313 313 314 315 315 314 314 314 313 312 312 311 310 309 309 308 308 307 306 305 305 304 304 304 305 306 306 305 305 304 302 301 300 298 298 298 298 298 298 298 298 298 298 298 298 298 297 297 297 297 297 296 296 296 296 296 294 292 291 290 290 290 290 290 290 290 289 291 294 296 296 294 294 295 294 295 295
316 317 316 316 316 315 314 314 314 314 315 315 315 314 314 313 312 312 311 311 310 309 308 308 308 307 306 306 306 306 306 307 308 307 306 306 305 304 303 301 300 299 298 298 297 297 297 298 298 298 298 297 297 297 297 297 297 297 296 296 296 296 296 296 294 293 291 290 290 289 289 289 289 289 288 288 290 294 297 296 294 293 293 294 294
316 316 316 316 315 315 314 314 315 315 315 314 314 314 314 313 313 312 311 310 310 309 308 308 307 307 307 306 306 306 307 307 307 306 305 305 304 303 303 301 300 299 298 298 297 297 297 297 297 297 297 297 297 297 297 297 296 296 296 296 296 296 296 296 295 293 291 290 289 289 289 289 288 288 287 287 286 289 294 296 295 294 293 293 293
315 315 316 316 315 314 314 314 315 314 315 314 314 314 313 313 312 311 311 310 309 309 308 308 307 307 307 306 306 306 306 305 305 305 305 304 304 303 302 302 301 299 298 297 297 297 297 297 297 297 297 297 297 297 296 296 296 296 296 295 296 296 296 296 295 293 291 290 289 289 289 288 288 287 287 287 286 286 288 291 293 294 295 295 294
316 316 315 314 313 313 313 313 314 314 314 314 314 314 313 312 312 311 310 310 309 309 308 308 307 307 306 306 306 306 305 305 304 304 303 303 303 303 302 302 301 299 298 297 297 296 296 296 297 297 297 297 296 296 296 296 296 296 295 295 295 295 296 296 295 293 291 290 289 289 289 288 288 288 287 286 286 286 286 287 288 289 291 295 296
317 315 314 313 312 312 313 313 314 314 313 313 313 313 312 312 311 311 310 309 309 308 308 307 307 306 306 306 306 306 305 304 304 303 303 303 303 302 302 301 301 300 298 297 297 296 296 296 296 296 296 296 296 296 296 296 296 295 295 295 295 295 295 296 295 292 291 290 289 289 289 288 288 288 287 286 286 285 285 285 286 286 286 289 293
316 315 314 314 312 312 313 313 313 313 313 313 313 313 312 311 311 310 310 309 309 308 308 307 307 306 307 306 306 305 305 305 304 304 304 303 303 302 301 301 300 299 298 297 297 296 296 296 296 296 296 296 296 296 295 295 295 295 295 295 295 295 295 295 294 292 291 290 289 289 289 288 288 287 287 286 286 285 284 284 285 285 285 287 289
314 314 314 314 312 312 313 313 313 313 313 313 312 312 311 310 310 310 309 309 308 308 307 307 306 307 306 306 306 305 305 305 305 304 304 303 303 302 302 301 301 300 299 298 297 296 296 296 296 296 296 295 295 295 295 295 295 295 295 295 295 295 295 295 294 291 290 290 289 289 289 288 288 287 287 286 286 285 285 284 285 285 284 286 288
313 312 312 314 314 313 313 313 313 313 313 312 312 312 311 310 309 309 309 309 308 308 307 307 307 307 306 306 305 305 305 305 305 305 304 303 303 302 302 302 301 301 300 299 298 297 296 296 296 295 295 295 295 295 295 295 295 295 295 294 294 295 295 295 293 291 290 289 289 288 288 288 288 287 287 286 286 285 285 284 284 285 285 286 287
312 312 312 313 313 312 313 313 313 313 313 312 312 311 310 310 309 309 309 308 308 308 308 308 308 307 307 306 306 306 306 306 306 305 305 304 303 302 302 302 302 301 300 299 298 297 296 296 295 295 295 295 295 295 295 295 294 294 294 294 294 294 295 295 293 291 290 289 289 288 288 288 287 287 287 286 285 285 285 284 283 283 285 286 286
312 313 313 313 313 312 313 313 313 312 312 311 311 311 310 310 309 309 309 309 308 308 309 309 309 308 307 307 307 307 306 306 306 306 305 304 303 303 302 302 301 301 300 299 298 297 297 296 295 295 295 294 294 294 294 294 294 294 294 294 294 294 294 294 293 291 289 289 288 288 288 287 287 287 286 286 285 285 284 284 284 283 283 284 285
313 313 313 313 312 312 312 312 312 312 311 311 311 311 310 310 309 309 309 308 308 309 309 309 309 308 308 308 308 308 307 307 307 307 306 304 303 303 302 302 301 300 299 299 298 297 297 296 295 295 295 294 294 294 294 294 294 294 294 294 294 294 294 294 293 291 289 289 288 288 288 287 287 286 286 286 285 285 284 284 284 284 283 283 283
312 312 312 312 312 312 312 312 311 311 310 311 311 310 310 309 309 309 309 309 310 310 309 309 309 309 309 309 309 308 308 308 307 307 305 304 304 304 303 302 301 300 299 298 298 297 297 296 295 295 294 294 294 294 294 294 294 294 294 294 294 294 294 294 292 290 289 289 288 288 287 287 287 286 286 286 285 285 285 285 284 284 284 283 283
312 312 312 312 312 312 312 311 311 311 310 310 310 310 310 309 309 308 309 310 310 310 309 309 309 309 309 309 309 309 308 308 307 306 305 305 305 304 303 302 301 299 298 298 297 297 296 295 295 294 294 293 293 294 294 294 294 293 293 293 294 294 294 294 292 290 289 289 288 288 287 287 287 286 286 286 285 285 285 285 284 284 284 284 284
311 312 312 312 312 312 312 311 311 310 310 310 310 310 310 310 310 309 309 310 310 310 310 310 310 310 310 309 309 309 308 308 307 306 305 305 304 303 303 302 300 299 299 298 297 296 296 295 294 294 293 293 293 293 293 293 293 293 293 293 293 293 293 293 291 289 289 288 288 287 287 286 286 286 286 285 285 285 285 285 284 284 284 284 285
312 312 312 312 312 312 312 312 312 311 311 311 311 311 311 311 311 311 311 311 311 312 312 311 311 310 310 309 309 309 308 308 307 306 306 305 304 303 302 301 300 299 299 298 297 296 295 295 294 294 293 293 293 293 293 293 293 293 293 293 293 293 293 293 290 289 289 288 288 287 286 286 286 286 285 285 285 285 284 284 284 284 284 284 285
313 313 313 313 313 313 313 312 312 312 311 311 311 311 311 311 311 311 311 311 311 312 312 312 312 311 311 310 309 309 308 307 307 306 306 305 304 303 302 300 300 299 299 297 296 296 295 295 294 294 293 293 292 293 293 293 293 293 293 293 293 293 293 292 290 289 288 288 287 287 286 286 286 286 286 285 285 285 284 284 284 284 284 284 284
314 313 313 313 313 313 313 313 313 313 312 311 311 311 311 312 312 311 311 311 311 312 312 312 312 311 311 310 310 309 309 308 307 306 306 305 304 303 302 300 300 299 298 297 296 295 295 294 294 294 293 292 292 292 292 293 293 293 293 293 293 293 292 291 290 289 288 288 287 287 286 286 286 286 286 285 285 285 284 284 284 284 284 284 284
313 313 313 313 313 313 313 313 313 313 313 312 311 312 312 312 312 312 311 311 311 311 312 311 312 311 311 311 310 309 309 308 308 307 307 306 304 303 302 301 300 298 297 296 295 294 294 294 294 293 293 292 292 292 292 292 292 292 292 292 292 292 292 291 289 288 288 288 287 287 286 286 286 286 286 285 285 284 284 284 284 284 284 284 284
313 313 313 313 312 312 313 313 313 313 313 313 312 312 312 313 313 313 313 312 311 311 311 311 311 311 311 311 310 310 309 309 309 308 307 306 305 304 302 301 300 298 297 295 294 294 294 294 294 293 293 292 292 292 292 292 292 292 292 292 292 291 291 290 289 288 288 287 287 286 286 286 286 286 285 285 284 284 284 284 284 283 283 283 284
313 313 313 313 312 312 313 313 313 313 313 313 313 313 313 313 313 313 313 313 311 311 310 310 310 310 310 310 310 310 310 310 309 309 308 307 306 304 303 301 300 298 297 295 294 294 293 293 293 293 292 292 291 291 292 292 292 292 292 292 291 291 290 289 288 288 288 287 287 286 286 286 286 286 285 285 284 284 284 283 283 283 283 283 283
312 312 312 312 312 312 312 313 313 312 312 313 313 313 313 312 312 313 313 313 312 311 310 310 310 309 310 310 310 310 310 310 309 309 308 307 306 304 303 301 299 298 297 295 294 294 293 293 293 292 292 291 291 291 291 291 291 291 291 291 291 290 289 289 288 288 287 287 286 286 286 286 285 285 285 284 284 283 283 283 283 283 283 283 283
311 311 311 312 312 312 312 313 312 312 312 312 313 313 312 312 312 313 313 313 313 312 311 310 310 310 310 310 310 310 310 309 308 307 306 306 305 304 302 300 299 298 296 295 294 294 293 292 292 292 291 291 291 291 291 291 291 291 291 291 290 290 289 288 288 287 287 286 286 286 285 285 285 285 284 284 283 283 283 283 283 283 283 282 282
311 311 311 311 311 311 311 312 312 312 312 312 313 313 313 313 313 313 313 312 312 312 312 311 310 310 310 310 310 309 309 308 307 306 305 305 305 304 302 300 298 297 296 295 294 293 293 292 291 291 291 291 290 290 290 291 291 291 291 290 290 289 288 288 287 287 286 286 286 285 285 285 285 284 284 283 283 283 283 283 283 283 282 282 281
309 309 310 310 310 310 310 311 311 312 312 313 313 313 313 313 313 313 313 313 313 312 312 311 310 310 311 310 310 309 308 308 306 306 305 304 304 303 301 300 298 297 295 294 294 293 292 292 291 291 290 290 290 290 290 290 290 290 290 290 289 288 288 287 287 286 286 285 285 285 285 285 284 284 284 284 283 283 283 283 282 282 281 280 279
306 307 307 307 307 308 309 310 311 311 312 313 313 313 313 313 313 313 313 313 312 312 312 311 311 311 311 310 310 309 309 308 307 306 304 303 302 301 300 299 298 296 295 294 293 293 292 291 291 290 290 290 289 289 289 289 290 290 289 289 289 288 287 287 287 286 286 286 286 285 285 285 284 284 284 284 283 282 282 282 281 280 279 278 277
303 304 304 304 304 305 306 307 308 309 310 311 312 312 312 313 313 313 313 313 312 312 312 311 311 311 310 310 309 309 308 308 307 305 304 302 301 300 299 299 297 296 295 294 293 292 291 291 290 290 289 289 289 289 289 289 289 289 289 288 288 287 287 287 287 286 286 286 286 285 285 285 285 285 284 283 282 282 281 281 281 280 278 277 276
300 301 302 302 302 302 303 304 305 307 308 310 311 311 311 312 312 313 313 313 312 312 311 311 311 311 310 310 309 308 308 307 307 305 303 301 300 300 299 298 297 296 294 293 293 292 291 290 290 289 289 289 289 289 289 289 289 289 288 287 287 287 287 286 286 287 286 285 285 285 285 285 285 284 283 283 282 282 281 281 281 280 278 277 276
298 298 298 299 300 300 301 302 303 305 307 309 310 310 310 311 312 312 313 312 312 312 311 311 310 310 309 308 308 307 307 306 306 304 302 301 300 300 299 298 296 295 294 293 292 292 291 290 290 289 289 288 288 288 288 288 288 288 287 286 286 286 286 286 286 286 286 285 285 285 285 284 284 283 282 282 281 281 281 281 280 279 278 277 276
297 297 297 297 298 299 299 300 300 302 304 307 309 310 309 310 311 311 312 312 312 311 310 310 309 309 308 307 307 307 306 305 304 303 302 301 300 299 298 297 296 295 294 293 292 292 291 290 290 289 288 288 287 287 287 287 287 287 286 286 286 286 286 286 286 286 286 286 285 285 284 284 283 282 281 281 281 281 281 280 279 278 277 276 275
296 297 297 297 298 299 299 299 299 299 301 304 307 309 309 310 310 310 311 312 312 311 310 310 309 309 308 307 306 305 305 304 304 302 301 300 299 299 298 296 295 294 293 292 292 291 291 290 289 289 288 287 287 287 287 287 287 286 286 286 286 286 286 287 287 287 287 286 285 284 284 283 282 281 281 281 281 281 279 278 277 276 275 275 275
295 296 297 297 298 298 298 298 298 299 299 301 303 306 308 309 310 309 309 310 310 310 310 309 309 308 307 305 305 304 304 304 303 302 301 300 300 298 297 296 295 293 292 292 291 291 290 290 289 288 287 286 286 287 287 286 286 285 285 286 287 287 287 287 288 288 287 286 284 284 283 282 281 281 281 281 281 280 278 276 276 275 275 275 276
294 295 295 295 295 296 296 297 298 298 299 299 301 303 305 306 307 307 306 307 308 308 308 307 307 306 304 303 303 303 303 303 303 302 301 300 299 298 297 295 294 293 292 292 291 290 290 289 289 288 287 286 286 286 286 286 286 285 286 286 287 288 288 287 288 288 286 285 284 283 282 281 281 281 281 281 280 279 277 276 276 275 275 276 276
294 294 294 294 294 294 295 295 296 298 299 299 300 301 302 303 304 304 305 305 306 306 305 305 304 303 302 302 301 301 301 301 301 300 300 299 298 297 296 294 293 292 292 291 291 290 289 289 288 287 286 286 286 286 286 286 285 285 286 287 287 287 287 287 287 287 285 284 283 282 282 281 281 281 280 280 280 278 277 276 276 275 275 275 275
293 293 294 293 293 293 294 294 295 296 298 299 300 300 300 301 301 302 303 303 304 304 303 303 302 302 301 301 300 300 299 299 299 298 298 297 296 295 295 293 292 292 291 291 290 289 289 288 288 286 286 285 286 286 286 286 285 285 286 287 287 287 287 287 287 285 284 283 283 282 281 281 280 280 280 280 279 278 276 276 275 275 275 275 275
293 293 293 293 293 293 293 293 294 294 295 298 299 300 300 300 300 301 301 302 302 302 302 302 301 301 300 300 299 299 298 298 298 297 296 296 295 294 294 293 292 291 291 290 290 289 288 288 287 286 285 285 285 285 285 286 285 286 286 287 286 286 287 287 285 284 283 283 282 281 281 280 280 280 279 279 279 277 276 275 276 275 275 275 274
292 292 292 292 292 292 293 293 293 293 294 295 298 299 299 299 300 300 300 301 301 301 301 301 301 300 299 298 298 297 297 297 296 296 295 294 294 293 292 292 291 291 290 289 289 288 287 287 286 285 285 285 285 285 285 285 286 285 286 286 286 286 286 285 284 283 283 283 282 281 280 280 280 279 279 279 278 277 276 276 276 275 275 274 274
291 290 290 290 290 291 292 293 293 293 293 294 296 298 299 299 299 299 300 300 300 300 300 300 300 300 299 298 297 296 296 295 295 294 294 293 293 292 291 291 290 290 289 288 288 287 287 286 285 285 284 284 284 285 285 285 285 285 284 285 286 285 284 283 283 283 283 282 281 280 280 279 279 279 279 279 278 277 277 276 276 275 275 275 275
289 289 289 289 289 289 290 291 292 293 293 293 295 297 298 298 298 298 299 299 299 299 299 299 299 299 299 299 298 297 296 295 294 293 292 292 291 291 290 290 289 289 288 287 287 286 286 285 285 285 284 284 284 284 285 285 285 284 284 284 285 284 283 283 283 282 282 281 280 280 279 279 279 279 279 278 277 277 276 275 275 275 275 275 275
288 288 288 288 288 288 289 290 291 291 292 292 294 295 296 297 297 297 298 298 298 298 298 298 298 298 298 298 298 298 297 296 295 294 293 292 291 290 290 289 288 288 287 287 286 286 285 285 284 284 284 284 284 284 284 285 284 284 283 282 282 282 282 282 282 282 281 280 279 279 279 279 279 279 278 277 277 276 275 275 275 275 275 275 275
286 287 287 287 287 288 288 289 289 290 290 291 292 293 294 295 295 296 296 297 297 297 297 297 297 297 297 297 297 296 296 296 295 294 293 292 291 290 289 289 288 287 287 286 286 286 285 284 284 283 283 283 283 284 284 284 284 283 282 280 280 280 280 281 282 281 280 279 279 279 279 279 278 278 277 277 276 275 275 275 275 275 275 274 274
285 285 285 285 286 286 287 288 289 289 289 289 290 291 292 292 293 293 294 296 296 296 296 296 296 296 296 296 296 295 295 294 294 294 294 293 291 289 288 288 288 287 286 286 285 285 285 284 283 283 283 283 283 284 284 284 284 283 281 279 279 279 280 280 281 281 280 279 279 279 278 278 277 277 276 276 275 275 275 275 274 274 274 274 274
284 284 284 284 285 285 286 287 288 288 288 289 290 291 291 291 291 291 293 294 295 295 295 296 296 296 296 295 295 295 295 294 293 293 294 294 293 291 290 290 290 290 289 288 287 286 285 285 284 283 282 282 283 284 284 285 285 283 281 280 280 280 280 281 280 280 279 279 278 278 278 277 277 276 275 275 274 274 274 274 274 274 274 274 274
282 282 283 283 283 284 285 286 287 288 287 287 289 290 290 290 290 290 292 293 294 295 295 295 295 295 295 295 294 294 294 293 293 292 292 292 292 291 291 290 290 290 289 289 289 289 288 286 284 284 283 283 283 284 285 286 285 283 281 281 281 281 281 280 280 279 279 278 278 277 277 277 276 275 274 274 274 274 274 274 274 273 273 273 273
282 281 282 282 283 283 283 285 286 287 286 286 288 289 290 290 289 289 290 292 293 294 294 294 295 295 295 295 294 293 293 292 292 291 290 289 288 288 287 287 287 287 287 287 287 288 288 286 284 284 283 284 284 285 286 285 282 280 279 280 280 280 280 279 279 279 278 278 277 277 276 276 275 274 274 274 274 274 273 273 273 273 273 273 273
281 280 280 281 281 282 283 285 286 286 285 285 287 288 289 289 288 287 287 289 290 292 293 294 294 294 295 294 294 293 292 292 291 291 290 288 287 286 285 284 284 284 284 284 283 284 285 285 284 283 283 283 284 286 285 283 280 278 278 278 279 279 279 279 279 279 278 277 277 276 275 275 274 274 273 273 273 273 273 273 274 274 273 273 272
Wind_Speed
55 54 54 53 52 49 47 47 44 43 43 43 42 43 44 45 46 47 46 45 44 44 43 42 40 38 37 37 38 39 40 41 40 39 38 36 34 33 32 32 32 32 31 31 30 28 27 26 26 25 23 22 20 18 16 14 13 14 14 15 16 16 17 17 18 19 19 20 19 16 14 11 9 6 4 3 14 12 4 5 10 13 12 13 14
54 54 55 53 52 48 45 44 42 41 41 42 41 41 43 46 47 47 46 46 45 45 44 43 41 39 37 36 36 38 40 40 40 39 39 37 36 34 33 33 33 33 32 31 30 30 29 28 27 26 24 23 21 19 16 14 13 13 14 15 15 16 16 16 16 18 18 19 20 21 17 12 9 5 5 11 17 5 3 11 14 14 14 14 15
55 54 54 52 51 46 43 42 41 40 39 40 41 40 43 46 47 47 47 46 46 45 45 43 41 39 37 35 35 36 38 39 38 38 38 38 37 36 35 35 35 34 33 32 32 31 30 29 28 27 25 24 21 19 16 14 13 13 13 14 15 15 15 15 15 16 16 18 20 21 21 17 10 2 8 17 12 3 10 17 16 16 16 16 16
55 54 52 50 48 45 43 42 41 39 37 39 41 42 44 45 47 48 47 47 46 45 44 43 41 39 38 36 35 35 36 37 38 39 39 39 39 38 37 36 36 35 34 33 33 32 31 30 29 28 26 24 22 19 16 14 13 12 12 13 14 15 15 15 15 15 15 17 18 18 19 16 8 8 21 21 8 8 17 19 19 20 18 18 19
56 54 52 49 47 46 43 40 38 37 37 39 40 41 42 43 46 47 46 46 45 45 44 43 43 42 40 38 37 37 37 38 40 41 42 42 41 40 38 37 37 36 35 35 34 33 32 31 30 29 27 25 22 19 17 15 13 11 11 12 14 15 15 15 15 14 14 15 16 15 12 11 13 21 28 21 14 16 18 19 21 21 20 20 21
56 54 52 49 48 47 42 38 37 37 37 36 37 39 40 42 45 45 46 45 45 45 45 44 44 43 42 41 40 40 40 41 42 42 42 42 41 41 39 37 37 37 37 36 35 34 34 33 32 30 28 26 23 20 18 15 13 11 11 11 13 15 15 15 15 14 14 14 15 14 12 13 19 25 24 24 27 23 16 18 21 21 22 22 22
52 51 50 48 47 45 41 38 37 35 34 35 37 39 41 43 44 44 45 45 44 45 45 45 44 43 43 41 40 40 41 41 41 41 41 40 40 40 39 38 38 38 38 37 37 35 35 34 33 31 29 26 24 21 19 15 12 11 10 11 13 16 16 16 15 14 14 14 14 15 14 15 18 20 20 25 32 31 25 21 20 22 25 24 24
48 48 47 45 44 41 37 34 32 32 33 35 37 39 41 43 43 43 44 43 43 44 44 44 43 43 42 41 40 41 41 41 40 41 41 40 40 39 38 38 39 39 39 38 38 37 36 36 34 32 30 28 25 22 19 16 13 11 10 11 12 15 16 16 16 14 14 14 13 13 13 13 14 15 16 18 22 32 35 29 25 27 26 24 26
46 46 45 42 40 35 29 27 28 31 33 35 35 37 40 42 42 43 43 43 43 43 43 42 42 41 40 41 42 41 42 42 42 42 41 40 39 39 38 38 39 39 40 39 39 38 38 37 36 34 32 29 26 23 20 17 14 12 11 11 12 15 17 17 17 15 14 14 14 13 12 12 11 10 11 13 15 23 30 32 33 34 30 25 26
42 42 40 37 33 27 22 23 27 29 32 34 35 38 41 42 42 43 43 43 42 42 42 41 40 41 41 42 42 42 43 44 44 44 43 42 40 40 39 39 40 40 40 41 40 39 39 38 37 35 32 29 27 24 21 18 14 12 11 11 12 15 17 18 18 16 15 15 14 13 12 11 10 8 8 10 12 17 22 27 30 33 36 32 28
37 35 34 31 26 20 19 22 25 28 31 34 36 39 40 41 41 42 42 42 42 41 41 40 40 41 41 41 41 42 43 44 45 46 45 45 44 43 41 41 41 41 42 42 41 41 40 39 38 35 33 30 27 25 21 18 15 13 12 11 13 16 18 18 19 17 15 15 14 14 14 13 12 10 9 10 13 16 21 27 28 29 34 35 33
32 30 29 28 23 18 18 22 25 29 31 33 36 39 40 40 41 42 42 42 42 41 40 40 41 41 41 41 41 43 43 44 45 45 45 46 45 44 44 43 42 42 43 43 43 42 41 41 39 37 35 32 28 25 22 19 16 13 12 12 13 16 18 19 20 18 16 15 15 14 14 14 13 12 12 12 14 17 21 27 30 30 34 37 36
28 25 24 25 22 17 18 21 23 27 30 32 35 38 39 39 40 41 42 42 41 41 41 41 41 41 41 42 42 43 43 44 44 44 45 45 45 45 44 44 44 44 44 45 44 43 42 42 41 39 37 33 29 26 23 20 17 14 12 12 14 16 18 20 20 19 17 16 15 15 15 14 13 13 14 14 15 17 20 26 29 30 34 39 38
24 20 18 19 19 15 16 19 21 25 28 31 34 36 37 38 40 41 41 41 41 41 41 41 41 41 41 42 43 43 43 43 42 43 43 44 45 45 44 43 43 43 43 43 44 43 43 43 42 40 38 34 30 27 24 21 17 15 14 13 14 16 18 20 21 20 18 17 16 16 16 15 14 14 14 15 15 17 20 24 29 33 36 39 38
22 18 14 14 15 14 15 18 21 23 27 29 31 33 35 37 39 41 41 41 41 41 40 40 40 41 41 42 42 42 42 41 41 42 42 43 44 44 44 43 43 43 42 41 42 42 43 43 42 41 39 35 32 28 26 22 19 17 15 14 15 16 18 21 22 21 19 18 18 17 17 16 15 15 15 15 15 17 19 21 25 32 38 41 41
21 16 11 10 12 12 14 17 20 22 25 27 28 30 33 35 37 39 39 40 40 40 40 40 40 41 42 41 41 41 41 41 41 41 42 42 42 43 43 43 43 43 42 41 42 42 43 43 43 42 40 37 33 30 27 24 21 18 16 15 15 16 19 21 22 21 20 20 19 19 18 17 16 16 15 15 15 16 18 19 21 24 30 38 42
20 13 9 9 9 10 13 16 18 19 21 23 24 26 29 32 35 37 38 39 40 40 40 41 42 42 42 41 41 41 41 41 41 41 41 41 42 42 42 43 43 43 43 42 42 42 43 44 44 43 41 39 36 33 29 26 23 20 17 16 16 17 19 22 23 22 21 21 20 20 19 18 18 17 16 16 16 17 18 19 21 21 23 29 35
14 12 9 8 7 8 10 13 14 15 17 19 21 23 26 29 33 35 36 38 39 40 41 42 43 43 43 42 42 42 41 41 41 41 42 42 42 42 42 43 43 43 44 43 43 43 44 45 45 45 43 40 37 34 31 28 24 22 19 18 17 18 20 22 23 22 22 21 21 20 20 19 19 18 17 17 17 18 19 19 20 21 22 24 27
10 8 6 5 6 8 8 9 12 13 15 17 18 20 23 26 31 33 34 35 37 40 42 43 45 45 44 43 43 43 43 43 43 44 44 44 43 43 43 43 43 44 44 43 43 44 45 46 47 46 44 41 39 36 32 29 26 23 21 19 18 18 20 23 24 23 22 21 21 20 20 20 19 18 17 17 17 18 19 20 21 22 23 25 26
7 5 4 4 5 7 8 8 10 11 14 15 17 18 19 22 27 31 33 35 38 40 42 44 46 46 46 46 45 45 45 45 45 46 46 46 45 45 45 44 44 44 44 43 43 43 44 46 47 47 45 42 40 37 34 31 28 25 22 20 19 20 21 23 24 23 22 21 21 20 20 20 19 18 17 17 18 18 19 20 22 24 24 25 28
9 7 6 6 7 7 7 8 10 13 15 16 17 17 18 22 25 28 32 36 39 41 44 45 46 47 48 48 48 47 48 48 48 48 48 48 47 47 47 46 46 45 45 45 44 43 43 44 45 46 45 43 42 39 36 33 30 27 24 22 21 21 22 23 23 23 21 20 20 20 20 20 19 18 17 17 18 18 20 21 22 25 26 26 28
10 11 12 12 11 12 11 11 13 16 17 18 18 19 20 22 25 28 32 35 38 42 45 47 48 49 50 50 50 50 51 51 51 51 51 50 49 49 49 49 48 47 46 46 45 43 43 43 45 46 46 45 43 40 37 34 31 28 25 23 22 22 23 24 23 22 21 20 20 19 19 19 18 17 17 18 19 19 21 23 23 25 27 27 28
17 20 21 19 16 15 15 16 17 19 21 21 21 21 21 23 26 30 34 36 38 40 44 48 50 51 52 52 52 53 53 53 53 53 53 52 51 51 52 51 50 49 48 48 46 45 44 44 44 46 46 46 44 41 38 35 32 29 26 24 23 23 23 24 23 21 21 20 20 19 19 18 17 17 18 18 20 21 22 24 25 26 28 29 29
28 30 31 30 26 23 22 22 20 20 21 24 23 23 24 26 28 32 36 39 40 41 44 48 51 52 53 54 55 55 56 56 56 55 54 54 53 53 53 52 51 51 50 49 48 46 45 44 45 46 47 47 45 42 39 36 32 29 27 25 24 24 24 24 22 21 20 20 20 19 18 17 17 17 18 20 21 23 24 25 27 27 28 30 30
38 38 38 37 33 30 28 24 20 17 19 22 25 28 30 30 31 34 37 40 42 44 47 49 50 52 54 55 56 57 57 57 56 56 56 55 54 54 54 53 52 52 51 50 49 47 46 45 45 47 48 48 46 44 40 37 34 30 28 27 26 25 25 23 22 21 20 20 19 18 18 17 17 18 19 20 22 23 25 26 27 28 28 29 31
43 42 41 41 39 36 32 24 20 20 22 26 32 37 38 37 37 38 39 40 42 45 48 50 52 52 53 55 57 58 59 59 59 58 57 56 56 55 55 55 54 53 52 51 49 48 47 46 45 47 48 48 47 45 42 38 35 32 30 28 27 26 25 23 22 21 20 19 18 18 17 17 17 18 19 21 22 24 25 26 27 28 29 30 31
39 38 38 39 41 41 37 30 28 29 32 34 37 41 42 41 42 43 42 42 43 45 47 50 52 52 52 53 55 56 56 59 61 60 58 57 57 56 56 56 54 53 52 51 50 49 47 45 45 46 47 48 48 46 43 39 36 33 31 29 28 27 25 23 21 20 19 19 18 17 17 17 17 18 20 21 23 24 25 27 27 28 29 30 32
35 34 35 37 39 40 38 37 38 39 40 41 44 46 45 44 46 49 47 45 44 46 49 51 50 50 50 50 50 50 51 54 58 59 59 58 57 57 56 55 54 53 52 51 50 48 46 45 45 45 47 48 48 47 43 40 38 35 32 31 29 27 25 23 21 20 19 18 18 16 16 16 17 18 20 21 22 24 25 26 26 27 29 30 32
34 33 35 37 39 40 39 41 43 44 44 46 48 48 46 46 48 50 49 47 45 46 49 50 49 48 48 47 47 48 49 51 54 56 58 58 57 57 55 54 53 52 51 51 49 47 46 45 45 46 48 49 49 46 43 41 39 36 34 31 29 27 24 22 21 20 18 18 16 15 15 16 17 18 19 20 22 24 25 26 27 27 28 29 30
30 31 32 34 37 39 40 42 43 43 44 44 44 44 46 47 47 48 50 49 46 46 46 46 46 46 46 46 48 49 50 50 52 53 55 57 57 56 54 52 51 50 50 49 48 47 46 45 45 47 49 50 49 46 44 42 40 36 34 31 29 27 24 23 21 19 18 17 15 15 16 16 17 18 19 21 22 24 25 26 27 27 27 27 28
33 33 33 32 33 35 39 41 42 42 43 44 44 44 45 47 47 48 49 46 45 46 45 45 46 46 47 49 51 51 50 50 50 52 54 56 56 54 52 50 49 49 49 49 48 47 46 46 47 48 49 50 49 47 45 42 40 37 35 32 29 27 25 23 21 19 17 16 16 16 16 16 17 18 20 21 22 22 23 23 24 23 24 24 25
37 39 39 38 37 35 34 37 39 40 41 44 47 48 48 50 50 46 43 42 45 48 47 47 48 49 51 53 53 53 52 51 50 51 53 53 53 52 50 49 48 48 48 48 48 48 47 47 47 48 49 50 49 47 45 43 41 38 35 32 29 27 24 22 21 19 17 16 16 16 16 16 17 19 20 21 21 22 22 23 23 22 21 21 22
37 40 42 42 43 42 39 35 34 35 37 39 44 51 53 49 44 41 41 43 46 47 48 49 49 51 54 54 54 53 53 52 50 50 50 50 50 49 48 47 47 47 47 48 48 47 47 47 47 47 49 50 49 47 45 43 40 37 34 31 28 26 24 22 21 19 17 17 16 16 16 17 18 19 20 20 21 22 23 24 24 23 23 22 22
38 40 43 44 44 45 45 42 37 32 32 33 37 45 48 43 39 42 46 47 44 43 45 48 49 51 53 52 52 53 53 51 50 48 48 48 47 47 46 46 46 46 47 47 47 47 46 46 47 47 48 49 48 46 43 41 38 35 32 30 27 25 23 22 20 19 18 17 16 16 17 18 19 19 19 20 21 23 24 25 25 25 25 24 24
41 42 44 45 44 46 47 46 44 41 34 30 33 37 39 40 42 46 48 44 40 39 40 42 44 47 48 49 50 51 51 50 48 47 46 45 45 45 45 45 45 45 46 46 46 46 45 45 46 46 47 48 46 44 42 40 37 34 32 30 27 25 23 21 20 19 18 17 16 16 18 19 19 19 19 20 22 23 24 25 25 25 26 26 27
42 43 44 45 44 45 47 47 46 45 43 37 31 31 34 38 40 43 42 37 33 33 34 36 38 41 43 45 47 47 48 47 46 45 45 44 44 44 44 44 44 44 44 44 44 44 44 44 45 46 47 47 45 43 41 39 36 34 33 31 28 25 22 21 21 20 18 17 17 18 19 20 19 19 19 20 21 22 22 22 23 24 26 27 28
43 43 44 44 44 45 46 46 46 44 44 44 38 28 25 27 31 34 33 29 25 25 27 30 34 36 39 41 43 44 44 44 44 44 43 43 42 42 43 43 43 43 44 44 44 44 43 43 44 45 47 47 45 43 41 38 35 34 34 32 27 24 23 21 21 20 19 18 18 19 20 20 19 19 19 20 20 19 19 21 24 25 25 27 28
45 45 46 47 46 47 47 46 45 43 42 43 41 34 26 20 21 22 22 20 18 19 22 26 29 32 35 37 39 41 41 42 43 42 41 41 41 41 42 41 41 42 42 42 42 42 42 42 43 44 46 46 44 43 40 37 35 35 34 31 26 24 23 22 21 20 19 19 19 20 19 19 19 19 19 19 18 17 19 21 22 24 26 29 31
46 46 46 47 48 48 48 47 46 43 41 40 40 38 31 25 23 21 20 20 20 19 20 22 24 27 31 34 36 38 40 41 41 40 39 40 40 40 40 40 40 40 39 40 41 41 42 42 43 44 45 45 44 42 40 37 35 35 34 29 26 24 23 22 22 20 19 19 20 20 19 18 18 18 18 18 17 17 19 19 20 24 29 32 32
46 47 47 48 48 48 49 49 47 45 41 37 37 37 34 30 28 26 25 25 23 22 21 20 20 23 26 29 32 35 37 39 39 39 39 39 39 39 38 38 38 38 38 39 40 41 42 42 42 44 46 45 44 42 39 37 35 35 33 29 26 25 24 22 22 20 20 20 21 19 17 16 17 18 17 17 18 16 16 18 21 26 30 30 28
43 45 45 47 48 48 48 48 46 45 42 37 35 35 34 32 30 28 28 28 25 23 22 21 21 21 22 26 29 31 34 35 36 37 37 38 37 37 37 37 38 38 39 40 40 41 42 42 43 45 46 45 43 41 39 37 35 34 32 30 27 25 23 22 22 20 20 21 20 18 16 15 16 16 16 17 16 14 14 18 22 25 26 25 23
42 43 43 45 47 48 48 48 46 44 42 39 36 34 33 33 31 30 29 29 26 23 21 22 22 21 21 23 26 29 31 32 34 35 36 36 37 37 37 37 38 39 39 40 41 42 43 44 44 45 46 45 43 41 39 38 36 35 33 31 27 25 23 22 21 21 22 21 18 15 15 15 15 15 16 15 13 13 15 18 20 20 21 22 23
42 43 43 43 44 46 47 46 46 44 41 39 37 34 32 31 30 29 30 30 28 25 24 23 22 22 21 22 24 26 28 30 32 34 35 36 37 37 38 38 38 39 40 42 43 44 45 46 46 47 47 46 44 42 40 38 37 35 33 31 27 24 24 23 22 22 22 20 16 14 14 15 15 15 14 12 11 12 14 15 16 17 19 21 24
39 40 42 42 43 45 45 45 45 43 40 37 35 33 34 32 30 29 30 30 30 29 28 27 25 24 23 22 23 25 27 29 30 32 33 35 37 38 38 38 39 40 42 44 45 46 47 47 48 49 49 48 46 44 41 39 37 35 33 31 27 25 24 24 23 22 21 17 15 14 15 15 15 14 11 9 10 11 12 13 15 16 19 21 23
39 40 42 42 43 44 45 45 44 42 40 38 34 33 34 33 32 31 31 31 31 32 32 30 28 26 26 25 25 26 27 28 29 31 33 35 37 38 39 40 40 42 44 45 46 47 48 49 49 51 52 50 47 44 42 40 38 36 33 31 27 25 24 24 23 22 19 16 15 15 16 15 13 11 9 8 8 10 11 13 14 16 18 20 22
39 41 42 42 43 44 45 46 45 43 41 40 37 35 35 35 34 33 32 32 32 32 33 32 30 29 28 27 27 28 28 29 30 31 33 35 37 39 40 41 42 44 45 46 47 48 49 50 51 52 52 50 48 46 44 42 40 36 33 31 28 26 25 24 24 21 18 17 17 16 14 12 10 9 7 7 7 9 10 12 13 15 16 18 20
40 41 41 42 43 45 46 48 48 45 43 43 41 39 38 38 37 34 33 32 32 32 32 33 32 31 29 29 29 29 30 31 32 32 32 35 37 40 42 43 44 45 47 48 49 50 50 51 53 53 52 51 49 48 45 43 41 37 35 32 30 28 27 26 24 20 18 18 17 15 13 11 9 7 6 6 7 8 9 10 12 13 15 17 19
43 42 42 43 44 46 48 50 50 48 45 44 43 42 41 40 40 37 34 33 33 33 32 33 33 32 32 31 30 30 31 33 34 35 35 36 37 40 43 44 45 46 47 48 50 51 52 53 55 56 55 53 51 50 48 45 41 38 36 35 33 31 29 26 23 20 19 18 16 14 12 10 7 5 6 7 8 8 9 10 11 12 14 17 18
47 46 45 45 46 47 48 50 52 50 47 45 44 43 42 41 40 38 34 33 34 34 34 34 35 34 34 33 33 33 33 34 36 37 38 39 40 41 43 45 45 46 47 47 48 50 52 55 56 58 58 57 55 52 47 42 38 36 36 35 33 30 27 24 22 21 19 18 16 14 10 8 5 5 6 8 8 8 8 9 10 12 14 16 18
51 50 49 48 48 48 49 51 53 52 50 47 45 43 43 42 41 38 35 33 33 34 35 36 36 37 37 35 35 35 35 36 37 38 40 41 42 43 45 46 47 47 48 49 49 49 50 53 55 57 57 55 52 48 42 38 37 37 35 32 29 27 25 24 24 22 19 18 16 12 9 6 6 7 8 8 8 8 8 9 10 12 15 17 19
53 52 52 51 50 50 51 52 53 52 51 50 48 46 43 42 42 40 38 36 35 35 36 38 38 39 39 37 37 37 37 38 39 40 41 42 43 45 46 48 49 49 48 49 50 49 48 50 53 54 53 50 47 43 40 40 39 36 33 31 28 27 26 25 23 21 19 17 14 11 9 8 8 9 9 8 7 7 8 9 11 13 15 17 20
Wind_Direction
274 276 276 275 273 272 269 265 260 257 256 255 253 252 252 250 247 244 241 239 236 235 233 230 229 226 226 226 225 225 225 225 226 226 227 226 226 228 230 230 231 232 232 232 232 232 232 232 231 233 235 237 241 246 253 263 277 292 299 299 298 298 300 302 304 306 309 310 306 304 314 318 312 293 211 331 337 333 325 322 333 338 340 342 341
274 275 274 273 272 270 268 265 260 257 256 255 254 254 252 248 246 244 241 239 237 236 234 233 233 233 233 233 230 227 226 226 226 227 227 226 226 227 228 230 230 231 232 232 232 232 233 233 233 233 235 236 240 244 251 262 276 291 299 300 298 298 301 302 305 311 317 323 320 315 317 326 327 282 221 329 338 335 328 331 332 335 335 336 338
271 273 273 272 270 269 265 262 261 260 258 256 254 252 248 246 245 242 240 239 237 236 235 235 236 237 237 237 234 230 228 229 229 229 229 228 227 227 227 229 230 231 232 232 233 233 234 233 233 233 234 236 238 242 249 260 274 291 300 302 300 299 302 304 309 315 323 332 333 328 325 332 344 270 279 320 331 316 334 336 333 332 332 334 335
268 270 272 271 270 268 264 262 261 258 254 251 249 246 245 245 244 241 239 238 236 235 235 234 234 234 233 233 234 233 231 230 230 230 230 229 228 228 228 228 229 231 231 232 233 233 233 232 231 232 233 234 236 240 248 258 274 291 301 302 300 301 304 308 312 318 327 335 337 335 332 334 343 322 315 318 317 315 330 335 334 331 331 333 334
266 268 271 270 270 269 267 266 263 256 251 249 247 245 243 244 243 240 239 238 236 234 232 231 231 230 229 227 228 229 230 229 229 229 228 228 229 228 228 229 229 230 231 232 232 232 231 231 230 231 231 233 235 239 246 257 272 289 299 301 301 302 305 309 313 320 329 336 339 338 335 326 321 328 327 321 310 314 325 334 335 332 331 331 332
265 266 269 269 270 270 268 266 263 258 254 251 247 244 242 242 241 239 238 236 234 232 230 230 231 231 230 228 227 226 226 226 227 228 228 228 229 228 228 229 229 230 230 231 231 231 230 230 230 230 230 232 233 237 244 255 270 285 295 300 301 301 303 306 308 318 327 334 337 334 331 323 322 330 332 321 315 312 318 334 336 332 330 331 332
265 267 269 270 271 269 268 268 265 260 254 248 243 239 238 239 239 238 236 235 233 231 230 230 231 232 234 234 234 232 229 228 228 229 230 231 231 230 228 229 229 230 230 231 230 230 229 229 228 229 229 230 232 237 243 252 264 276 288 296 299 298 300 302 303 311 323 329 332 329 327 326 326 330 328 324 322 315 314 326 334 332 331 332 331
267 269 270 271 272 271 272 272 266 257 250 243 238 235 236 237 237 236 235 234 233 231 230 231 232 234 236 237 237 238 236 236 234 233 233 233 232 232 231 230 230 230 230 231 230 229 228 228 227 227 227 229 231 236 241 249 259 269 280 288 293 295 295 298 300 303 315 323 326 324 323 324 325 328 324 322 319 314 315 321 325 326 327 330 331
268 270 272 272 273 275 278 272 260 251 245 241 238 236 235 235 235 234 233 233 232 231 231 232 234 236 238 238 238 239 239 239 238 237 236 234 233 232 232 231 231 230 230 230 230 229 228 227 227 226 227 229 231 235 239 246 255 264 273 282 289 291 291 294 295 298 308 317 319 318 319 320 322 324 319 311 305 304 311 319 323 323 320 323 332
271 271 273 273 274 276 273 262 252 246 242 239 236 234 234 234 233 232 232 232 232 231 232 233 235 236 238 238 239 239 238 237 238 238 238 237 235 233 232 232 232 231 230 229 229 228 227 227 227 227 228 229 231 233 237 243 250 259 268 279 286 288 290 292 292 294 303 311 313 314 315 316 318 319 310 300 296 294 299 309 319 322 318 320 330
273 273 275 275 275 271 259 249 244 240 237 235 233 232 233 234 233 232 232 232 232 232 233 234 235 236 237 238 239 240 239 238 238 237 237 237 237 236 234 233 233 232 231 230 230 228 227 227 227 227 228 229 231 232 236 241 246 254 265 275 283 288 289 290 290 291 298 305 308 310 311 312 314 317 313 301 299 300 298 302 311 317 315 317 325
275 276 277 277 274 264 249 241 236 234 232 232 231 231 233 233 233 232 231 231 232 232 233 234 235 236 237 238 238 239 239 239 240 240 240 239 239 238 237 235 234 233 231 230 230 229 228 228 227 227 228 229 231 233 235 238 243 250 261 272 281 287 289 290 289 289 292 299 301 303 305 307 309 311 313 310 307 306 302 303 311 315 311 315 324
278 277 278 279 277 265 245 236 231 230 230 229 230 231 233 234 232 231 232 232 232 233 233 234 235 235 236 237 238 239 239 241 242 242 243 243 242 240 239 238 236 234 232 231 230 229 229 229 229 228 230 231 231 232 234 237 241 248 258 269 278 285 288 289 288 286 289 294 296 298 298 300 304 305 307 309 309 309 305 304 310 312 310 315 323
280 280 281 280 277 262 239 232 229 228 228 228 230 233 235 234 232 232 232 233 233 234 234 234 235 236 237 238 239 239 240 241 242 242 242 243 243 243 243 242 240 238 236 234 232 231 231 231 230 230 230 231 231 231 233 236 239 246 255 265 274 281 286 286 285 283 287 291 292 293 295 296 297 299 302 306 308 309 308 309 311 313 314 317 322
284 287 286 277 268 252 230 225 228 229 229 231 232 234 235 234 232 231 231 231 232 233 234 234 234 235 236 238 239 240 240 241 241 242 242 242 243 243 244 245 245 243 241 239 236 233 232 232 231 230 230 230 230 230 233 235 237 243 252 260 269 277 282 283 282 282 285 289 291 290 291 292 292 294 297 301 304 304 306 309 311 314 316 318 321
284 285 273 262 256 238 221 220 226 230 231 233 235 236 237 235 232 231 232 232 232 231 231 231 232 234 235 235 236 237 238 238 239 239 240 241 242 243 244 246 247 246 244 241 238 235 234 233 231 230 229 229 229 230 232 234 236 240 247 256 264 272 278 280 279 280 282 285 287 287 287 287 287 290 293 297 300 301 304 308 308 310 312 314 318
275 267 249 250 249 224 213 218 225 231 235 236 237 240 241 239 234 232 232 233 232 231 230 230 232 233 233 233 233 233 233 233 234 235 237 239 240 241 244 246 247 247 245 242 240 237 235 233 231 230 229 228 228 229 231 232 234 238 243 251 259 267 274 277 276 275 278 281 283 283 283 283 283 287 291 296 300 301 303 306 306 306 304 306 312
259 248 235 232 229 218 216 224 233 238 241 242 243 245 245 244 240 237 236 235 232 230 230 231 232 232 231 230 230 230 230 231 233 235 237 238 238 239 241 244 246 247 246 244 241 239 236 234 231 229 228 228 228 228 229 230 232 236 240 246 254 263 269 272 272 272 274 277 280 280 280 280 281 285 290 295 299 302 304 305 306 306 304 303 306
253 256 255 239 232 239 240 243 247 246 244 244 245 247 247 247 245 242 242 242 238 235 233 233 233 232 231 229 229 229 229 231 233 235 237 237 237 238 240 242 245 246 246 245 242 240 238 236 232 229 227 227 227 227 228 229 231 234 238 243 251 259 265 269 269 270 272 275 278 278 277 278 280 284 290 295 299 302 304 305 306 305 306 305 305
298 305 298 275 261 261 263 269 269 260 252 246 244 249 253 252 250 247 246 244 242 240 237 235 235 233 232 231 230 230 230 231 233 235 236 236 237 238 240 241 244 245 246 246 244 242 240 238 235 230 228 227 227 226 227 229 231 233 236 241 248 254 261 265 266 267 271 275 277 275 274 276 279 283 288 294 299 302 304 305 305 305 305 305 305
332 332 333 320 304 292 282 279 279 269 259 253 251 254 256 255 254 253 250 246 242 240 239 238 237 236 235 234 232 231 232 233 235 235 237 237 238 240 241 242 243 245 246 246 245 242 240 239 237 233 229 228 228 227 227 229 230 233 235 239 245 251 258 262 264 267 270 274 274 272 272 274 276 282 289 295 298 301 303 303 303 302 302 303 302
306 307 311 314 314 310 297 284 280 271 260 253 254 255 257 260 260 256 253 250 247 245 242 241 239 237 237 235 234 234 235 236 236 236 237 238 239 241 242 243 243 244 246 246 245 243 240 238 237 234 230 229 229 229 229 230 231 233 235 238 243 249 255 260 262 265 269 271 271 268 269 273 277 284 290 294 298 300 300 300 300 299 299 300 300
287 291 293 296 297 299 294 282 277 275 264 252 251 256 262 268 270 263 257 254 251 250 248 245 242 240 238 236 236 237 237 238 238 238 239 239 241 242 243 244 244 245 246 246 245 243 240 238 237 234 231 230 230 230 231 231 232 234 235 238 243 248 253 257 260 264 268 269 269 267 268 272 277 284 290 294 297 298 297 297 298 297 298 299 299
289 287 287 288 288 290 292 282 275 280 275 262 257 262 267 271 273 271 267 262 256 252 251 249 246 243 241 239 240 239 239 239 239 240 241 242 243 244 245 246 246 246 246 245 245 242 240 238 236 234 232 230 230 231 231 232 232 234 235 238 242 247 251 255 258 262 266 267 266 266 267 270 276 283 289 293 293 294 295 295 296 296 297 298 298
291 287 287 289 288 291 294 283 271 277 282 276 271 269 268 270 275 277 274 270 263 256 252 252 249 246 243 242 242 241 240 240 240 242 243 244 245 245 246 247 246 246 245 245 244 241 239 237 235 234 232 231 231 231 232 233 233 234 235 237 241 246 251 254 257 260 263 264 264 264 265 270 277 284 287 289 291 292 293 293 293 295 295 295 296
285 286 289 292 294 297 295 281 264 268 276 280 280 275 268 268 275 279 275 271 268 262 256 254 252 249 247 245 243 243 242 242 242 243 244 246 246 246 247 246 246 246 245 244 243 241 239 238 236 234 233 231 231 231 232 233 234 234 235 237 241 245 249 251 254 257 259 260 261 261 265 270 276 283 286 287 288 289 291 292 293 293 293 294 295
278 281 285 289 293 294 288 274 265 270 277 281 284 280 272 268 275 279 275 270 268 265 260 257 254 252 250 248 247 247 248 248 246 245 245 246 247 247 247 247 246 245 244 243 242 240 239 238 236 235 233 231 230 230 232 232 232 234 235 238 241 244 247 249 251 254 255 256 258 259 265 271 276 282 284 285 288 290 291 292 292 293 293 294 293
279 283 286 289 290 287 280 273 270 273 278 283 287 284 276 272 277 279 274 269 267 265 263 260 256 252 250 250 249 250 252 252 250 247 245 246 247 247 247 247 245 245 244 243 242 240 239 237 235 234 233 231 229 229 231 231 232 234 235 237 240 243 245 246 249 252 252 253 257 260 266 272 276 280 281 284 288 289 290 289 290 292 292 292 292
287 289 288 288 286 282 277 276 276 276 278 282 284 282 277 276 277 276 273 269 265 265 266 261 254 251 250 251 251 250 251 251 250 248 246 245 246 246 246 246 245 244 243 242 241 240 239 236 234 232 231 230 229 229 231 232 233 235 235 237 239 240 243 244 246 248 248 251 255 260 266 270 273 276 279 283 287 287 288 290 291 293 293 295 297
315 312 306 299 293 287 283 281 280 278 278 281 280 278 276 278 278 277 277 273 264 262 262 257 252 252 253 253 251 249 250 250 249 248 246 245 245 244 245 245 245 243 242 240 239 237 237 235 233 232 230 229 228 229 230 231 233 234 235 236 237 238 239 241 242 243 245 249 254 258 263 266 269 274 279 284 288 289 292 294 295 297 298 299 301
354 348 342 334 321 309 299 294 289 284 283 283 282 281 279 278 279 280 279 274 264 259 256 250 250 252 252 251 249 247 248 249 248 247 245 244 243 243 243 243 243 242 240 238 237 236 235 234 233 232 231 229 229 228 229 230 232 233 234 235 235 236 236 237 238 240 243 248 254 259 262 266 270 277 281 284 288 290 292 292 291 292 292 292 292
3 1 360 359 353 342 325 310 301 294 292 291 290 291 286 281 280 281 280 273 265 260 254 248 250 252 249 248 247 246 245 246 247 247 245 243 242 242 242 242 242 241 239 237 235 235 234 233 232 232 231 230 229 228 228 230 232 233 233 233 232 232 233 234 234 238 243 248 254 258 263 270 274 278 280 282 285 286 285 284 284 286 286 283 278
359 357 357 358 358 357 350 337 319 300 292 293 294 293 289 284 284 286 284 278 272 265 256 250 250 252 250 248 247 246 245 245 246 247 245 243 242 241 242 242 241 239 237 235 235 234 233 232 232 231 231 230 229 227 228 229 231 231 231 230 230 230 231 233 235 240 244 248 255 262 269 277 279 279 281 284 285 285 283 283 284 286 287 289 286
350 348 349 349 349 350 352 352 345 324 299 288 290 293 291 286 285 284 282 279 275 269 260 253 253 253 251 249 247 246 245 244 245 245 244 242 241 241 241 241 239 237 236 234 234 233 232 232 232 231 231 229 227 226 227 228 229 230 229 227 227 228 229 232 237 242 246 252 262 272 279 282 282 283 286 287 285 284 283 283 285 288 292 296 294
346 343 343 344 343 343 343 346 348 346 332 305 288 287 289 286 283 282 279 276 272 267 262 258 257 257 253 250 248 245 244 244 243 243 242 241 240 240 240 239 238 236 236 235 234 233 232 232 231 230 230 228 225 224 225 227 227 228 227 225 224 226 229 233 238 245 254 263 272 280 283 284 286 287 288 286 284 284 285 287 291 294 294 291 288
342 341 341 341 340 339 340 339 341 347 349 339 316 294 286 285 285 283 277 272 269 266 263 262 261 260 256 252 248 246 244 243 242 242 241 239 239 239 239 238 236 235 234 233 233 233 232 231 230 229 228 225 223 223 224 225 226 226 226 224 223 226 231 236 242 252 261 269 275 279 282 284 286 287 285 283 283 285 287 289 289 285 284 286 290
340 339 340 342 341 339 339 339 339 343 348 350 345 332 310 297 293 287 275 268 269 272 272 270 267 264 259 253 249 246 245 243 241 240 239 239 239 239 238 237 234 233 231 231 231 231 231 231 230 229 227 223 221 222 223 224 224 224 226 227 226 228 233 238 245 253 260 266 272 276 279 281 282 284 283 281 283 284 283 280 279 281 287 293 295
337 337 337 338 339 339 338 339 341 343 345 347 348 349 349 338 320 304 290 285 292 296 292 284 276 268 260 254 250 247 244 242 241 240 240 239 239 238 238 236 234 233 232 232 232 231 230 230 230 229 226 222 221 221 223 223 222 223 226 227 228 230 234 238 244 251 258 263 268 271 274 277 280 281 281 282 283 281 276 277 284 292 295 291 289
333 333 333 333 334 335 335 336 339 341 344 345 343 342 346 348 340 330 323 321 321 316 307 297 285 273 263 256 252 248 245 243 241 240 240 240 239 238 237 235 233 232 233 233 232 231 230 229 228 227 224 220 220 221 222 223 222 223 225 226 227 230 232 237 244 250 255 260 263 267 271 275 278 279 279 281 280 275 275 282 289 290 286 284 289
328 328 329 330 331 331 332 332 335 337 339 342 340 336 336 338 338 337 336 333 329 320 313 305 293 280 269 261 256 252 248 245 243 242 241 240 239 238 237 235 233 232 232 233 232 230 229 227 226 225 222 219 219 221 222 222 221 223 226 225 225 229 232 237 243 247 252 257 261 265 269 270 270 273 275 274 272 271 277 283 282 279 281 288 298
324 325 326 327 327 328 328 327 329 331 333 337 337 334 333 332 332 335 335 331 327 323 320 314 303 289 275 265 259 255 251 249 247 245 243 241 241 240 238 236 234 232 231 230 229 228 227 226 224 222 220 218 219 220 221 221 220 222 225 225 224 228 233 237 241 245 249 255 259 263 265 264 264 267 268 266 266 270 275 276 277 280 287 295 300
323 323 324 326 325 324 324 323 324 326 328 331 331 329 330 330 330 333 331 324 320 318 318 317 312 302 288 273 263 257 253 251 248 246 244 242 241 240 238 236 234 233 231 229 227 225 224 223 221 220 218 217 217 219 219 219 219 220 223 223 223 226 232 235 238 244 249 253 258 259 258 259 261 262 261 260 265 270 271 275 281 287 291 293 291
323 323 325 326 324 321 320 319 319 321 324 327 327 324 323 325 327 329 326 322 320 317 313 312 311 308 301 288 276 267 260 255 251 248 245 243 241 239 237 234 232 231 229 227 225 224 222 221 219 217 216 216 216 217 217 217 217 218 220 222 222 223 229 233 236 242 248 252 254 253 252 255 255 254 254 258 265 271 274 280 286 288 290 292 294
321 321 323 324 322 320 318 315 314 316 319 322 323 321 318 317 320 323 321 320 321 318 314 310 305 302 299 293 286 278 270 263 258 253 248 244 242 239 236 234 231 229 228 226 225 223 221 219 217 215 214 214 215 216 215 215 216 216 217 220 221 221 226 231 235 241 246 248 247 245 246 248 248 248 253 260 267 273 279 284 287 290 294 298 301
318 318 320 321 319 318 316 313 311 312 313 314 316 316 313 311 314 316 313 313 314 313 313 311 305 299 293 287 283 278 273 269 264 259 254 250 245 241 237 234 231 228 227 226 224 223 221 219 216 214 213 213 213 213 212 213 213 214 214 216 218 219 222 228 234 238 241 241 238 239 241 243 244 249 255 262 270 276 279 282 288 293 298 302 304
315 316 317 316 315 314 313 311 309 308 308 308 307 307 306 305 309 310 308 306 305 306 307 307 304 300 293 285 280 275 270 266 262 259 257 254 250 246 241 236 232 229 227 226 225 223 220 218 216 215 214 213 212 211 211 211 211 211 210 210 213 214 217 224 232 233 233 234 236 236 237 238 240 246 255 264 272 274 275 281 290 296 300 305 308
312 313 314 313 312 310 309 308 307 306 306 304 302 300 299 300 302 303 302 299 297 297 298 299 298 297 292 285 281 276 271 266 260 256 255 253 250 246 242 238 235 231 228 226 224 223 221 218 216 215 213 213 212 211 210 209 209 207 205 204 207 211 214 221 228 229 227 230 232 230 228 230 233 241 256 268 269 268 272 282 292 300 307 312 315
312 313 313 312 311 309 307 306 305 304 305 303 299 296 295 296 296 296 295 294 291 289 290 290 290 290 287 283 278 274 271 267 261 257 255 253 250 246 242 241 241 238 234 230 227 225 223 220 218 215 212 211 211 211 211 210 209 206 204 203 206 211 214 218 222 223 222 224 224 222 222 224 228 242 261 264 259 260 271 284 295 305 311 316 321
312 312 312 312 310 308 306 305 302 302 303 301 297 293 291 290 291 291 290 289 287 286 283 281 281 281 281 279 275 270 267 264 260 256 254 252 249 247 245 244 244 243 241 239 236 232 228 224 220 216 213 211 211 212 212 212 210 207 206 207 209 211 212 213 214 216 216 216 215 216 217 217 222 238 249 248 248 258 276 290 301 308 312 319 328
312 311 311 311 309 307 306 304 302 302 301 298 295 292 288 285 284 286 286 285 285 284 281 277 274 273 273 273 271 268 264 261 258 255 251 248 245 243 241 241 240 238 238 238 238 237 233 227 222 219 218 218 218 217 214 211 208 205 205 206 208 208 206 206 209 209 208 208 209 209 206 208 217 226 229 233 243 260 278 291 302 311 318 327 333
310 309 308 308 307 306 305 303 302 301 300 298 295 292 288 283 280 279 280 280 279 278 276 273 270 269 269 269 268 266 264 260 257 254 250 246 243 240 238 237 236 235 234 232 231 232 232 229 225 221 219 219 220 219 214 208 203 200 200 201 202 201 200 203 207 204 200 202 203 198 196 204 212 214 220 231 247 264 282 296 307 317 326 332 335